FLOCK 2K-15 (42890 NORAD) Tracking and Keplerian Element Data

This shows tracking and keplerian element data for the satellite.

Feedback or suggestion? Click here.




ElementValue
Catalog42890
NameFLOCK 2K-15
Epoch Orbit28872
Epoch Day242.02474725
Epoch Year2022
RAAN82.9983
Inclination96.7836
Eccentricity0.0004038
Argument of Perigee206.7404
Mean Anonmoly153.3673
Mean Motion16.08228502
Decay Rate0.00808084
L11 42890U 17042BT 22242.02474725 .00808084 35372-3 98044-3 0 9999
L22 42890 96.7836 82.9983 0004038 206.7404 153.3673 16.08228502288720



Live tracking and technical data element details for FLOCK 2K-15 (NORAD 42890). FLOCK 2K-15 can be tracked NOW for your location showing map with azimuth and elevation plus other details from your city location.







IsCatalogInMostPopularTable: catalog: 42890, numindb: 620
Update: records affected: 1



GetName: 42890 FLOCK 2K-15

Hit Count: updated at: Tue, 18 Jun 2024 00:20:57 GMT